Find Starlink 11623

NORAD ID: 63276 Int'l Des: 2025-053 Owner: SPXS Country: US Constellation: starlink operational
又名: STARLINK-11623 [DTC] celestrak
LEOCIRCULAR

当前视图

正在加载3D地球...

About Starlink 11623

Starlink 11623 (NORAD 63276) is a starlink constellation satellite (v2 mini d2c) launched Mar 15, 2025 by SPXS of US. It operates in LEO, CIRCULAR orbit with a mass of 960.00 kg.

即将过境

Passes for default location (London). Set your location on the main map for personalized predictions.

高度历史

Loading altitude history...

两行轨道根数

1 63276U 25053M 26235.01008856 .00192434 00000-0 14704-2 0 9996
2 63276 42.9996 190.0401 0001831 268.2964 91.7694 15.70812514 83810
Epoch: Aug 23, 2026 • Age: 33 hours

当前状态

高度 357.8 km
远地点 / 近地点 N/A
速度 7.70 km/s
星下点 35.81°N, 153.03°W
发射日期 Mar 15, 2025
运行时间 1.4 years
类型 internet

技术详情

分类 Payload
质量 960.00 kg
干质量 910.00 kg
总质量 960.00 kg
长度 0.30 m
直径 4.10 m
跨度 29.00 m
形状 Box + pan
制造商 SPXS
平台类型 Starlink V2MD
阶段状态 In Orbit
所有者/国家 SPXS/US

Most Searched